GW4352 Weather Reports


time (UTC)temp
C
wind
direction
speed
KPH
gust
KPH
rain 1hr
cm
rain 24hr
cm
rain mn
cm
humidity
%
barometer
mb
20260508014055 4 0.0 0.0 0.00 0.00 0.00 97 1013.2
20260508013029 4 0.0 0.0 0.00 0.00 0.00 97 1013.4
20260508012039 4 0.0 0.0 0.00 0.00 0.00 97 1013.2
20260508011042 4 0.0 0.0 0.00 0.00 0.00 97 1013.3
20260508010018 4 0.0 0.0 0.00 0.00 0.00 97 1013.4
20260508005026 4 0.0 0.0 0.00 0.00 0.00 97 1013.4
20260508004100 4 0.0 0.0 0.00 0.00 0.00 96 1013.3
20260508003027 4 0.0 0.0 0.00 0.00 0.00 96 1013.5
20260508002034 5 0.0 0.0 0.00 0.00 0.00 96 1013.6
20260508001027 5 0.0 0.0 0.00 0.00 0.00 96 1013.5
20260508000038 5 0.0 0.0 0.00 0.00 0.00 96 1013.7
20260507235043 5 0.0 0.0 0.00 0.00 0.00 95 1013.7
20260507234018 5 0.0 0.0 0.00 0.00 0.00 95 1013.8
20260507233025 6 0.0 0.0 0.00 0.00 0.00 95 1013.7
20260507232035 5 0.0 0.0 0.00 0.00 0.00 95 1013.6
20260507231034 6 0.0 0.0 0.00 0.00 0.00 94 1014.0
20260507230018 6 0.0 0.0 0.00 0.00 0.00 94 1013.9
20260507225049 6 0.0 0.0 0.00 0.00 0.00 94 1013.8
20260507224018 7 0.0 0.0 0.00 0.00 0.00 94 1014.1
20260507223041 7 0.0 0.0 0.00 0.00 0.00 93 1013.9
20260507222019 7 0.0 0.0 0.00 0.00 0.00 93 1014.0
20260507221026 7 0.0 0.0 0.00 0.00 0.00 92 1013.9
20260507220020 7 0.0 0.0 0.00 0.00 0.00 92 1013.9
20260507215026 7 0.0 0.0 0.00 0.00 0.00 91 1014.2
20260507214035 7 0.0 0.0 0.00 0.00 0.00 90 1014.3
20260507213027 7 0.0 0.0 0.00 0.00 0.00 89 1014.2
20260507212019 8 0.0 0.0 0.00 0.00 0.00 88 1014.3
20260507211043 8 0.0 0.0 0.00 0.00 0.00 87 1014.2
20260507210019 8 0.0 0.0 0.00 0.00 0.00 86 1014.1
20260507205025 9 0.0 0.0 0.00 0.00 0.00 86 1013.9
20260507204019 9 0.0 0.0 0.00 0.00 0.00 85 1014.0
20260507203047 9 0.0 0.0 0.00 0.00 0.00 84 1013.9
20260507202034 10 0.0 0.0 0.00 0.00 0.00 83 1013.9
20260507201029 10 0.0 0.0 0.00 0.00 0.00 80 1013.6
20260507200017 11 0.0 0.0 0.00 0.00 0.00 77 1013.4
20260507195041 11 0.0 0.0 0.00 0.00 0.00 75 1013.4
20260507194020 11 136 0.0 1.6 0.00 0.00 0.00 75 1013.3
20260507193026 12 0.0 0.0 0.00 0.00 0.00 74 1013.0
20260507192020 12 137 1.6 3.2 0.00 0.00 0.00 74 1013.0
20260507191028 12 138 0.0 3.2 0.00 0.00 0.00 73 1013.0
20260507190033 12 131 1.6 3.2 0.00 0.00 0.00 72 1013.2
20260507185049 12 129 1.6 3.2 0.00 0.00 0.00 72 1012.8
20260507184019 12 122 1.6 3.2 0.00 0.00 0.00 71 1012.9
20260507182019 12 115 1.6 4.8 0.00 0.00 0.00 70 1013.0
20260507181027 13 123 3.2 6.4 0.00 0.00 0.00 70 1012.9
20260507180019 13 159 3.2 4.8 0.00 0.00 0.00 69 1012.8
20260507175026 13 181 3.2 9.7 0.00 0.00 0.00 68 1012.9
20260507174055 13 167 6.4 11.3 0.00 0.00 0.00 69 1012.9
20260507173049 13 157 4.8 9.7 0.00 0.00 0.00 68 1012.9
20260507172018 13 165 8.0 14.5 0.00 0.00 0.00 67 1012.8
20260507171042 13 149 6.4 14.5 0.00 0.00 0.00 68 1013.1
20260507170033 13 176 8.0 16.1 0.00 0.00 0.00 67 1012.9
20260507165028 14 146 8.0 14.5 0.00 0.00 0.00 66 1013.1
20260507164017 14 141 4.8 16.1 0.00 0.00 0.00 64 1013.1
20260507163028 14 136 6.4 16.1 0.00 0.00 0.00 65 1012.8
20260507162115 14 162 4.8 11.3 0.00 0.00 0.00 65 1012.9
20260507161029 14 188 6.4 12.9 0.00 0.00 0.00 65 1012.8
20260507160138 14 155 4.8 6.4 0.00 0.00 0.00 65 1013.0
20260507155044 13 182 4.8 9.7 0.00 0.00 0.00 66 1012.9
20260507154019 13 198 3.2 6.4 0.00 0.00 0.00 67 1012.9
20260507153026 13 207 4.8 6.4 0.00 0.00 0.00 68 1012.9
20260507152022 13 213 4.8 6.4 0.00 0.00 0.00 67 1013.0
20260507151027 13 231 6.4 12.9 0.00 0.00 0.00 68 1013.0
20260507150035 13 223 6.4 14.5 0.00 0.00 0.00 68 1013.1
20260507145047 13 224 8.0 17.7 0.00 0.00 0.00 68 1013.2
20260507144019 13 212 8.0 14.5 0.00 0.00 0.00 64 1013.1
20260507143042 14 149 4.8 11.3 0.00 0.00 0.00 57 1013.2
20260507142019 14 175 6.4 11.3 0.00 0.00 0.00 57 1013.2
20260507141025 15 156 4.8 11.3 0.00 0.00 0.00 55 1012.9
20260507140020 15 124 6.4 11.3 0.00 0.00 0.00 52 1013.0
20260507135026 15 140 1.6 6.4 0.00 0.00 0.00 48 1013.1
20260507134033 15 58 1.6 3.2 0.00 0.00 0.00 45 1013.0
20260507133030 15 235 0.0 4.8 0.00 0.00 0.00 44 1012.8
20260507132018 15 296 0.0 3.2 0.00 0.00 0.00 47 1013.0
20260507131041 15 355 1.6 4.8 0.00 0.00 0.00 47 1013.1
20260507130018 15 338 1.6 6.4 0.00 0.00 0.00 48 1013.1
20260507125025 15 28 1.6 4.8 0.00 0.00 0.00 48 1013.1
20260507124040 15 1 3.2 6.4 0.00 0.00 0.00 48 1013.1
20260507123047 15 94 1.6 6.4 0.00 0.00 0.00 49 1013.3
20260507122034 15 39 4.8 9.7 0.00 0.00 0.00 50 1013.3
20260507121028 15 35 4.8 11.3 0.00 0.00 0.00 52 1013.3
20260507120019 15 62 4.8 9.7 0.00 0.00 0.00 52 1013.6
20260507115043 15 73 4.8 11.3 0.00 0.00 0.00 53 1013.6
20260507114018 15 81 4.8 12.9 0.00 0.00 0.00 53 1013.6
20260507113025 15 81 6.4 11.3 0.00 0.00 0.00 55 1013.6
20260507112019 14 60 3.2 11.3 0.00 0.00 0.00 56 1013.6
20260507111026 14 85 3.2 9.7 0.00 0.00 0.00 54 1013.5
20260507110034 14 88 4.8 11.3 0.00 0.00 0.00 52 1013.7
20260507105042 13 336 1.6 4.8 0.00 0.00 0.00 51 1013.7
20260507104018 13 245 3.2 4.8 0.00 0.00 0.00 52 1013.7
20260507103051 13 115 1.6 4.8 0.00 0.00 0.00 49 1013.7
20260507102018 13 186 3.2 6.4 0.00 0.00 0.00 49 1013.8
20260507101026 15 176 3.2 6.4 0.00 0.00 0.00 48 1013.7
20260507100019 15 112 1.6 4.8 0.00 0.00 0.00 49 1013.8
20260507095028 13 107 3.2 4.8 0.00 0.00 0.00 48 1014.0
20260507094035 12 250 3.2 4.8 0.00 0.00 0.00 55 1014.0
20260507093050 12 276 1.6 9.7 0.00 0.00 0.00 62 1013.8
20260507092017 12 264 6.4 9.7 0.00 0.00 0.00 64 1013.8
20260507091041 14 203 4.8 11.3 0.00 0.00 0.00 61 1013.8
20260507090019 13 153 3.2 6.4 0.00 0.00 0.00 62 1013.7
20260507085025 13 162 3.2 6.4 0.00 0.00 0.00 67 1014.0
20260507084021 12 174 1.6 6.4 0.00 0.00 0.00 69 1013.9
20260507083051 12 98 3.2 9.7 0.00 0.00 0.00 72 1013.9
20260507082033 12 92 1.6 4.8 0.00 0.00 0.00 74 1013.9
20260507081028 12 139 4.8 9.7 0.00 0.00 0.00 76 1013.7
20260507080038 12 84 3.2 6.4 0.00 0.00 0.00 77 1013.6
20260507075041 11 123 4.8 9.7 0.00 0.00 0.00 80 1013.5
20260507074018 11 48 1.6 4.8 0.00 0.00 0.00 84 1013.4
20260507073025 10 58 1.6 3.2 0.00 0.00 0.00 84 1013.4
20260507072021 10 82 1.6 3.2 0.00 0.00 0.00 84 1013.6
20260507071026 9 105 1.6 3.2 0.00 0.00 0.00 85 1013.5
20260507070034 8 115 0.0 1.6 0.00 0.00 0.00 86 1013.5
20260507065029 7 0.0 0.0 0.00 0.00 0.00 89 1013.3
20260507064022 7 0.0 0.0 0.00 0.00 0.00 92 1013.4
20260507063043 6 216 0.0 1.6 0.00 0.00 0.00 94 1013.2
20260507062018 5 216 0.0 3.2 0.00 0.00 0.00 95 1013.2
20260507061045 5 216 1.6 3.2 0.00 0.00 0.00 95 1013.4
20260507060019 5 217 1.6 3.2 0.00 0.00 0.00 96 1013.2
20260507055028 4 208 1.6 3.2 0.00 0.00 0.00 96 1013.1
20260507054033 4 0.0 0.0 0.00 0.00 0.00 96 1013.0
20260507053029 3 0.0 0.0 0.00 0.00 0.00 96 1012.9
20260507052019 3 0.0 0.0 0.00 0.00 0.00 96 1012.9
20260507051041 3 0.0 0.0 0.00 0.00 0.00 96 1012.9
20260507050018 3 0.0 0.0 0.00 0.00 0.00 97 1012.7
20260507045029 3 0.0 0.0 0.00 0.00 0.00 96 1012.8
20260507044023 3 206 0.0 1.6 0.00 0.00 0.00 96 1012.8
20260507043042 3 205 1.6 3.2 0.00 0.00 0.00 96 1012.8
20260507042021 3 206 1.6 3.2 0.00 0.00 0.00 96 1012.8
20260507041025 3 194 1.6 3.2 0.00 0.00 0.00 96 1012.7
20260507040018 3 0.0 0.0 0.00 0.00 0.00 96 1012.8
20260507035041 3 0.0 0.0 0.00 0.00 0.00 96 1012.8
20260507034021 4 165 0.0 1.6 0.00 0.00 0.00 96 1012.9
20260507033025 3 161 0.0 3.2 0.00 0.00 0.00 96 1012.8
20260507032023 3 0.0 0.0 0.00 0.00 0.00 96 1012.7
20260507031027 4 0.0 0.0 0.00 0.00 0.00 96 1012.7
20260507030033 4 0.0 0.0 0.00 0.00 0.00 96 1012.8
20260507025029 4 0.0 0.0 0.00 0.00 0.00 95 1012.7
20260507024018 5 0.0 0.0 0.00 0.00 0.00 95 1012.6
20260507023042 5 0.0 0.0 0.00 0.00 0.00 95 1012.6
20260507022023 5 0.0 0.0 0.00 0.00 0.00 95 1012.8
20260507021028 5 0.0 0.0 0.00 0.00 0.00 94 1012.5
20260507020022 5 0.0 0.0 0.00 0.00 0.00 94 1012.5
20260507015028 5 0.0 0.0 0.00 0.00 0.00 94 1012.5